Wetterdaten: Woche 10.12.18 - 16.12.18 (KW50)
Datum Zeit Temp. A. Pool Temp. Temp. 5cm Feuchte A. Luftdruck Regen Wind Richtung Sonnenschein ET UV Solar Taupunkt Windchill Windben Empfang
10.12.2018 00:00 5,4 C 4,4 C 4,3 C 89 % 1009,2 hPa 1,0 l/m 18,4 km/h (3 Bft) W 0,00 h 0,000 mm 0,0 UV-I 0 W/m 3,8 C -1,9 C 28,6 km/h (4 Bft) 97,97 %
10.12.2018 01:00 5,6 C 4,4 C 4,4 C 87 % 1009,5 hPa 0,0 l/m 22,4 km/h (4 Bft) W 0,00 h 0,025 mm 0,0 UV-I 0 W/m 3,7 C -3,2 C 34,1 km/h (5 Bft) 96,65 %
10.12.2018 02:00 5,5 C 4,4 C 4,5 C 88 % 1010,4 hPa 0,2 l/m 18,3 km/h (3 Bft) W 0,00 h 0,026 mm 0,0 UV-I 0 W/m 3,7 C -1,7 C 28,3 km/h (4 Bft) 96,76 %
10.12.2018 03:00 5,3 C 4,4 C 4,2 C 89 % 1011,0 hPa 0,2 l/m 21,1 km/h (4 Bft) W 0,00 h 0,025 mm 0,0 UV-I 0 W/m 3,6 C -3,0 C 33,3 km/h (5 Bft) 98,96 %
10.12.2018 04:00 5,0 C 4,4 C 3,5 C 85 % 1012,2 hPa 0,0 l/m 23,7 km/h (4 Bft) W 0,00 h 0,026 mm 0,0 UV-I 0 W/m 2,7 C -4,4 C 37,9 km/h (5 Bft) 97,93 %
10.12.2018 05:00 4,3 C 4,4 C 2,7 C 84 % 1013,7 hPa 0,0 l/m 21,1 km/h (4 Bft) W 0,00 h 0,025 mm 0,0 UV-I 0 W/m 1,7 C -4,5 C 33,4 km/h (5 Bft) 96,63 %
10.12.2018 06:00 4,1 C 4,4 C 2,5 C 82 % 1014,2 hPa 0,0 l/m 13,3 km/h (3 Bft) W 0,00 h 0,025 mm 0,0 UV-I 0 W/m 1,4 C -0,9 C 20,8 km/h (4 Bft) 96,80 %
10.12.2018 07:00 4,2 C 4,4 C 3,3 C 83 % 1014,2 hPa 0,0 l/m 15,1 km/h (3 Bft) W 0,00 h 0,026 mm 0,0 UV-I 5 W/m 1,5 C -1,8 C 24,4 km/h (4 Bft) 98,13 %
10.12.2018 08:00 4,2 C 4,4 C 3,4 C 82 % 1015,0 hPa 0,0 l/m 16,3 km/h (3 Bft) W 0,00 h 0,025 mm 0,0 UV-I 20 W/m 1,4 C -2,5 C 25,3 km/h (4 Bft) 97,59 %
10.12.2018 09:00 3,7 C 4,4 C 3,6 C 86 % 1015,8 hPa 0,2 l/m 20,1 km/h (4 Bft) W 0,00 h 0,026 mm 0,0 UV-I 65 W/m 1,6 C -4,7 C 30,6 km/h (5 Bft) 95,93 %
10.12.2018 10:00 3,5 C 4,4 C 3,6 C 87 % 1016,5 hPa 0,0 l/m 19,6 km/h (3 Bft) W-SW 0,00 h 0,050 mm 0,0 UV-I 98 W/m 1,5 C -4,9 C 31,8 km/h (5 Bft) 95,90 %
10.12.2018 11:00 4,2 C 4,4 C 4,8 C 81 % 1016,9 hPa 0,0 l/m 16,2 km/h (3 Bft) W 0,00 h 0,051 mm 0,0 UV-I 130 W/m 1,3 C -2,4 C 26,7 km/h (4 Bft) 98,44 %
10.12.2018 12:00 4,3 C 4,4 C 5,3 C 81 % 1017,0 hPa 0,0 l/m 21,0 km/h (4 Bft) W 0,07 h 0,076 mm 0,0 UV-I 129 W/m 1,3 C -4,4 C 32,0 km/h (5 Bft) 97,50 %
10.12.2018 13:00 4,7 C 4,4 C 5,5 C 77 % 1016,9 hPa 0,0 l/m 22,3 km/h (4 Bft) W 0,53 h 0,077 mm 0,0 UV-I 154 W/m 1,0 C -4,4 C 34,1 km/h (5 Bft) 96,24 %
10.12.2018 14:00 4,6 C 4,4 C 4,9 C 77 % 1016,8 hPa 0,0 l/m 21,4 km/h (4 Bft) W 0,17 h 0,101 mm 0,0 UV-I 85 W/m 0,9 C -4,1 C 34,7 km/h (5 Bft) 95,73 %
10.12.2018 15:00 2,5 C 4,4 C 1,8 C 86 % 1017,1 hPa 0,4 l/m 18,4 km/h (3 Bft) W 0,00 h 0,076 mm 0,0 UV-I 9 W/m 0,4 C -5,2 C 30,0 km/h (5 Bft) 98,06 %
10.12.2018 16:00 0,8 C 4,4 C 0,0 C 94 % 1017,4 hPa 0,0 l/m 13,6 km/h (3 Bft) W 0,00 h 0,026 mm 0,0 UV-I 6 W/m -0,1 C -5,0 C 19,9 km/h (4 Bft) 96,97 %
10.12.2018 17:00 1,2 C 4,4 C 0,0 C 93 % 1017,8 hPa 0,0 l/m 10,2 km/h (2 Bft) W-SW 0,00 h 0,000 mm 0,0 UV-I 0 W/m 0,2 C -2,0 C 16,0 km/h (3 Bft) 96,99 %
10.12.2018 18:00 1,6 C 4,4 C 0,0 C 93 % 1017,7 hPa 0,2 l/m 15,0 km/h (3 Bft) W 0,00 h 0,000 mm 0,0 UV-I 0 W/m 0,5 C -5,0 C 22,2 km/h (4 Bft) 96,59 %
10.12.2018 19:00 1,9 C 4,4 C 0,4 C 92 % 1017,3 hPa 0,8 l/m 13,0 km/h (3 Bft) W-SW 0,00 h 0,000 mm 0,0 UV-I 0 W/m 0,7 C -3,4 C 19,1 km/h (3 Bft) 97,35 %
10.12.2018 20:00 2,3 C 4,4 C 1,2 C 91 % 1016,7 hPa 0,8 l/m 18,0 km/h (3 Bft) W-SW 0,00 h 0,000 mm 0,0 UV-I 0 W/m 1,0 C -5,7 C 26,9 km/h (4 Bft) 97,86 %
10.12.2018 21:00 2,1 C 4,4 C 1,0 C 89 % 1016,9 hPa 1,0 l/m 17,9 km/h (3 Bft) W 0,00 h 0,025 mm 0,0 UV-I 0 W/m 0,5 C -5,7 C 29,4 km/h (5 Bft) 95,80 %
10.12.2018 22:00 0,5 C 4,4 C 0,0 C 95 % 1016,8 hPa 0,4 l/m 12,6 km/h (3 Bft) W 0,00 h 0,026 mm 0,0 UV-I 0 W/m -0,3 C -4,8 C 19,2 km/h (3 Bft) 97,12 %
10.12.2018 23:00 0,8 C 4,4 C 0,0 C 95 % 1017,2 hPa 0,0 l/m 14,0 km/h (3 Bft) W 0,00 h 0,000 mm 0,0 UV-I 0 W/m 0,1 C -5,2 C 20,5 km/h (4 Bft) 97,12 %
11.12.2018 00:00 1,0 C 4,4 C 0,1 C 93 % 1017,6 hPa 0,0 l/m 17,1 km/h (3 Bft) W 0,00 h 0,000 mm 0,0 UV-I 0 W/m -0,0 C -6,9 C 25,1 km/h (4 Bft) 98,43 %
11.12.2018 01:00 1,2 C 4,4 C 0,6 C 90 % 1017,9 hPa 0,0 l/m 14,9 km/h (3 Bft) W 0,00 h 0,000 mm 0,0 UV-I 0 W/m -0,2 C -5,4 C 21,8 km/h (4 Bft) 95,42 %
11.12.2018 02:00 1,3 C 4,4 C 0,6 C 89 % 1017,8 hPa 0,0 l/m 14,7 km/h (3 Bft) W-SW 0,00 h 0,000 mm 0,0 UV-I 0 W/m -0,3 C -5,1 C 22,5 km/h (4 Bft) 96,91 %
11.12.2018 03:00 1,5 C 4,4 C 0,6 C 87 % 1017,5 hPa 0,2 l/m 18,8 km/h (3 Bft) W 0,00 h 0,025 mm 0,0 UV-I 0 W/m -0,4 C -7,1 C 27,6 km/h (4 Bft) 97,29 %
11.12.2018 04:00 1,3 C 4,4 C 0,6 C 90 % 1017,3 hPa 0,0 l/m 19,6 km/h (3 Bft) W-SW 0,00 h 0,026 mm 0,0 UV-I 0 W/m -0,2 C -7,8 C 29,7 km/h (5 Bft) 98,18 %
11.12.2018 05:00 0,9 C 4,4 C 0,6 C 93 % 1017,2 hPa 0,0 l/m 20,7 km/h (4 Bft) W-SW 0,00 h 0,025 mm 0,0 UV-I 0 W/m -0,1 C -8,7 C 30,9 km/h (5 Bft) 95,37 %
11.12.2018 06:00 0,7 C 4,4 C 0,0 C 95 % 1017,2 hPa 0,2 l/m 20,5 km/h (4 Bft) W-SW 0,00 h 0,000 mm 0,0 UV-I 0 W/m -0,1 C -8,9 C 31,1 km/h (5 Bft) 96,81 %
11.12.2018 07:00 0,7 C 4,4 C 0,0 C 95 % 1017,6 hPa 0,4 l/m 19,1 km/h (3 Bft) W 0,00 h 0,000 mm 0,0 UV-I 5 W/m 0,0 C -8,2 C 28,8 km/h (4 Bft) 96,74 %
11.12.2018 08:00 1,5 C 4,4 C 0,7 C 92 % 1017,9 hPa 0,4 l/m 22,3 km/h (4 Bft) W 0,00 h 0,000 mm 0,0 UV-I 21 W/m 0,3 C -8,6 C 34,6 km/h (5 Bft) 97,97 %
11.12.2018 09:00 1,8 C 4,2 C 0,9 C 87 % 1018,4 hPa 0,4 l/m 23,9 km/h (4 Bft) W-SW 0,00 h 0,026 mm 0,0 UV-I 33 W/m -0,1 C -8,8 C 37,3 km/h (5 Bft) 96,24 %
11.12.2018 10:00 1,1 C 4,3 C 1,0 C 93 % 1018,6 hPa 0,2 l/m 23,7 km/h (4 Bft) W-SW 0,00 h 0,025 mm 0,0 UV-I 64 W/m 0,1 C -9,7 C 35,7 km/h (5 Bft) 95,27 %
11.12.2018 11:00 1,2 C 4,2 C 1,2 C 94 % 1018,7 hPa 0,4 l/m 20,9 km/h (4 Bft) W 0,00 h 0,025 mm 0,0 UV-I 72 W/m 0,4 C -8,4 C 31,8 km/h (5 Bft) 97,63 %
11.12.2018 12:00 1,8 C 4,0 C 2,2 C 93 % 1018,6 hPa 0,0 l/m 20,6 km/h (4 Bft) W-SW 0,00 h 0,026 mm 0,0 UV-I 95 W/m 0,7 C -7,5 C 30,7 km/h (5 Bft) 97,04 %
11.12.2018 13:00 2,2 C 3,9 C 1,7 C 88 % 1018,7 hPa 0,0 l/m 19,7 km/h (3 Bft) W 0,00 h 0,051 mm 0,0 UV-I 43 W/m 0,5 C -6,6 C 29,1 km/h (5 Bft) 97,52 %
11.12.2018 14:00 2,3 C 3,9 C 1,7 C 87 % 1018,8 hPa 0,0 l/m 21,7 km/h (4 Bft) W-SW 0,00 h 0,025 mm 0,0 UV-I 40 W/m 0,3 C -7,4 C 32,5 km/h (5 Bft) 94,76 %
11.12.2018 15:00 2,3 C 3,9 C 1,7 C 86 % 1019,0 hPa 0,0 l/m 20,8 km/h (4 Bft) W-SW 0,03 h 0,025 mm 0,0 UV-I 16 W/m 0,2 C -7,0 C 31,3 km/h (5 Bft) 97,79 %
11.12.2018 16:00 2,3 C 3,9 C 1,6 C 85 % 1019,1 hPa 0,0 l/m 18,9 km/h (3 Bft) W-SW 0,00 h 0,026 mm 0,0 UV-I 7 W/m 0,1 C -6,1 C 29,1 km/h (5 Bft) 96,87 %
11.12.2018 17:00 2,1 C 3,9 C 1,1 C 85 % 1019,2 hPa 0,0 l/m 22,1 km/h (4 Bft) W-SW 0,00 h 0,025 mm 0,0 UV-I 0 W/m -0,1 C -7,7 C 33,4 km/h (5 Bft) 98,39 %
11.12.2018 18:00 2,0 C 3,9 C 1,2 C 86 % 1019,4 hPa 0,0 l/m 19,6 km/h (3 Bft) W-SW 0,00 h 0,026 mm 0,0 UV-I 0 W/m -0,1 C -6,8 C 29,9 km/h (5 Bft) 94,91 %
11.12.2018 19:00 2,1 C 3,9 C 1,2 C 86 % 1019,5 hPa 0,0 l/m 22,0 km/h (4 Bft) W-SW 0,00 h 0,025 mm 0,0 UV-I 0 W/m -0,0 C -7,7 C 32,9 km/h (5 Bft) 98,38 %
11.12.2018 20:00 1,6 C 3,9 C 1,1 C 90 % 1019,7 hPa 0,0 l/m 20,3 km/h (4 Bft) W-SW 0,00 h 0,025 mm 0,0 UV-I 0 W/m 0,1 C -7,7 C 29,8 km/h (5 Bft) 97,09 %
11.12.2018 21:00 1,1 C 3,9 C 0,5 C 93 % 1019,6 hPa 0,4 l/m 16,7 km/h (3 Bft) W-SW 0,00 h 0,026 mm 0,0 UV-I 0 W/m 0,1 C -6,6 C 25,0 km/h (4 Bft) 97,83 %
11.12.2018 22:00 1,2 C 3,9 C 0,6 C 94 % 1019,6 hPa 0,0 l/m 17,6 km/h (3 Bft) W-SW 0,00 h 0,000 mm 0,0 UV-I 0 W/m 0,3 C -6,9 C 27,0 km/h (4 Bft) 95,35 %
11.12.2018 23:00 1,2 C 3,9 C 0,6 C 94 % 1019,6 hPa 0,0 l/m 19,7 km/h (3 Bft) W-SW 0,00 h 0,000 mm 0,0 UV-I 0 W/m 0,3 C -7,9 C 29,9 km/h (5 Bft) 97,59 %
12.12.2018 00:00 1,0 C 3,9 C 0,6 C 94 % 1019,4 hPa 0,2 l/m 21,5 km/h (4 Bft) W-SW 0,00 h 0,000 mm 0,0 UV-I 0 W/m 0,2 C -8,8 C 30,3 km/h (5 Bft) 97,78 %
12.12.2018 01:00 0,8 C 3,9 C 0,6 C 95 % 1019,4 hPa 0,0 l/m 18,4 km/h (3 Bft) SW 0,00 h 0,000 mm 0,0 UV-I 0 W/m 0,1 C -7,7 C 27,3 km/h (4 Bft) 96,82 %
12.12.2018 02:00 0,7 C 3,9 C 0,1 C 95 % 1019,6 hPa 0,2 l/m 18,0 km/h (3 Bft) W-SW 0,00 h 0,000 mm 0,0 UV-I 0 W/m 0,0 C -7,8 C 27,2 km/h (4 Bft) 96,51 %
12.12.2018 03:00 0,6 C 3,9 C 0,0 C 96 % 1019,6 hPa 0,2 l/m 17,6 km/h (3 Bft) W-SW 0,00 h 0,000 mm 0,0 UV-I 0 W/m 0,0 C -7,7 C 26,2 km/h (4 Bft) 96,82 %
12.12.2018 04:00 0,6 C 3,9 C 0,0 C 96 % 1019,5 hPa 0,2 l/m 18,5 km/h (3 Bft) W-SW 0,00 h 0,000 mm 0,0 UV-I 0 W/m 0,0 C -8,1 C 26,9 km/h (4 Bft) 98,09 %
12.12.2018 05:00 0,6 C 3,9 C 0,2 C 96 % 1019,5 hPa 0,0 l/m 16,6 km/h (3 Bft) W-SW 0,00 h 0,000 mm 0,0 UV-I 0 W/m 0,0 C -7,2 C 25,1 km/h (4 Bft) 96,60 %
12.12.2018 06:00 0,6 C 3,9 C 0,0 C 96 % 1019,8 hPa 0,2 l/m 16,1 km/h (3 Bft) W-SW 0,00 h 0,000 mm 0,0 UV-I 0 W/m 0,0 C -6,8 C 24,4 km/h (4 Bft) 97,10 %
12.12.2018 07:00 0,6 C 3,9 C 0,1 C 96 % 1020,2 hPa 0,0 l/m 16,3 km/h (3 Bft) W-SW 0,00 h 0,000 mm 0,0 UV-I 5 W/m 0,0 C -6,9 C 23,5 km/h (4 Bft) 96,05 %
12.12.2018 08:00 0,6 C 3,9 C 0,6 C 96 % 1020,8 hPa 0,0 l/m 12,7 km/h (3 Bft) W 0,00 h 0,000 mm 0,0 UV-I 17 W/m 0,1 C -4,7 C 18,1 km/h (3 Bft) 98,95 %
12.12.2018 09:00 0,9 C 3,9 C 1,3 C 96 % 1021,2 hPa 0,0 l/m 10,8 km/h (2 Bft) W 0,00 h 0,000 mm 0,0 UV-I 54 W/m 0,3 C -3,1 C 15,4 km/h (3 Bft) 97,20 %
12.12.2018 10:00 1,3 C 3,9 C 2,2 C 96 % 1021,4 hPa 0,0 l/m 8,7 km/h (2 Bft) W-SW 0,17 h 0,025 mm 0,0 UV-I 95 W/m 0,7 C -0,9 C 13,9 km/h (3 Bft) 97,90 %
12.12.2018 11:00 1,9 C 3,9 C 3,4 C 95 % 1021,2 hPa 0,0 l/m 11,7 km/h (2 Bft) SW 0,47 h 0,026 mm 0,0 UV-I 161 W/m 1,1 C -2,6 C 18,2 km/h (3 Bft) 95,28 %
12.12.2018 12:00 1,9 C 3,9 C 2,5 C 94 % 1021,1 hPa 0,0 l/m 11,6 km/h (2 Bft) W-SW 0,00 h 0,051 mm 0,0 UV-I 62 W/m 1,0 C -2,4 C 17,5 km/h (3 Bft) 97,90 %
12.12.2018 13:00 1,9 C 3,9 C 2,2 C 92 % 1021,0 hPa 0,0 l/m 13,1 km/h (3 Bft) SW 0,00 h 0,025 mm 0,0 UV-I 66 W/m 0,8 C -3,4 C 19,7 km/h (3 Bft) 97,70 %
12.12.2018 14:00 2,1 C 3,9 C 2,6 C 91 % 1020,8 hPa 0,0 l/m 12,2 km/h (2 Bft) W-SW 0,17 h 0,025 mm 0,0 UV-I 92 W/m 0,8 C -2,6 C 18,3 km/h (3 Bft) 98,67 %
12.12.2018 15:00 1,8 C 3,9 C 1,5 C 91 % 1020,6 hPa 0,0 l/m 12,8 km/h (3 Bft) SW 0,47 h 0,051 mm 0,0 UV-I 46 W/m 0,5 C -3,4 C 20,0 km/h (4 Bft) 95,97 %
12.12.2018 16:00 1,1 C 3,9 C 0,5 C 92 % 1020,6 hPa 0,0 l/m 10,7 km/h (2 Bft) SW 0,00 h 0,026 mm 0,0 UV-I 7 W/m -0,1 C -2,7 C 16,5 km/h (3 Bft) 97,43 %
12.12.2018 17:00 1,0 C 3,9 C 0,4 C 92 % 1020,6 hPa 0,0 l/m 9,2 km/h (2 Bft) W 0,00 h 0,000 mm 0,0 UV-I 0 W/m -0,1 C -1,7 C 14,4 km/h (3 Bft) 97,45 %
12.12.2018 18:00 0,4 C 3,9 C 0,0 C 95 % 1020,7 hPa 0,6 l/m 4,7 km/h (1 Bft) W 0,00 h 0,000 mm 0,0 UV-I 0 W/m -0,3 C 0,3 C 7,1 km/h (2 Bft) 98,84 %
12.12.2018 19:00 0,3 C 3,9 C 0,0 C 96 % 1020,7 hPa 2,4 l/m 0,7 km/h (0 Bft) W-SW 0,00 h 0,000 mm 0,0 UV-I 0 W/m -0,3 C 0,3 C 1,5 km/h (1 Bft) 95,76 %
12.12.2018 20:00 0,2 C 3,9 C -0,1 C 97 % 1020,8 hPa 2,6 l/m 0,0 km/h (0 Bft) N 0,00 h 0,000 mm 0,0 UV-I 0 W/m -0,3 C 0,2 C 0,0 km/h (0 Bft) 96,41 %
12.12.2018 21:00 0,1 C 3,9 C 0,0 C 97 % 1020,9 hPa 0,4 l/m 0,0 km/h (0 Bft) N 0,00 h 0,000 mm 0,0 UV-I 0 W/m -0,3 C 0,1 C 0,0 km/h (0 Bft) 97,28 %
12.12.2018 22:00 -0,2 C 3,9 C -0,6 C 97 % 1020,9 hPa 0,0 l/m 0,0 km/h (0 Bft) N 0,00 h 0,000 mm 0,0 UV-I 0 W/m -0,6 C -0,2 C 0,0 km/h (0 Bft) 98,49 %
12.12.2018 23:00 -0,5 C 3,9 C -0,6 C 96 % 1020,8 hPa 0,0 l/m 0,0 km/h (0 Bft) N 0,00 h 0,000 mm 0,0 UV-I 0 W/m -1,0 C -0,5 C 0,0 km/h (0 Bft) 97,51 %
13.12.2018 00:00 -1,0 C 3,9 C -2,2 C 96 % 1020,5 hPa 0,0 l/m 0,0 km/h (0 Bft) N 0,00 h 0,000 mm 0,0 UV-I 0 W/m -1,6 C -1,0 C 0,0 km/h (0 Bft) 98,10 %
13.12.2018 01:00 -0,9 C 3,9 C -1,0 C 97 % 1020,1 hPa 0,0 l/m 0,0 km/h (0 Bft) N 0,00 h 0,000 mm 0,0 UV-I 0 W/m -1,3 C -0,9 C 0,0 km/h (0 Bft) 95,01 %
13.12.2018 02:00 -0,7 C 3,9 C -0,9 C 97 % 1020,0 hPa 0,0 l/m 0,0 km/h (0 Bft) N 0,00 h 0,000 mm 0,0 UV-I 0 W/m -1,2 C -0,7 C 0,0 km/h (0 Bft) 98,03 %
13.12.2018 03:00 -0,9 C 3,9 C -1,5 C 96 % 1019,4 hPa 0,0 l/m 0,0 km/h (0 Bft) N 0,00 h 0,000 mm 0,0 UV-I 0 W/m -1,5 C -0,9 C 0,0 km/h (0 Bft) 96,54 %
13.12.2018 04:00 -0,8 C 3,9 C -1,1 C 94 % 1018,9 hPa 0,0 l/m 0,4 km/h (0 Bft) O-NO 0,00 h 0,000 mm 0,0 UV-I 0 W/m -1,6 C -0,9 C 0,9 km/h (0 Bft) 98,38 %
13.12.2018 05:00 -1,0 C 3,9 C -1,3 C 94 % 1018,5 hPa 0,0 l/m 8,5 km/h (2 Bft) O 0,00 h 0,000 mm 0,0 UV-I 0 W/m -1,9 C -3,2 C 13,7 km/h (3 Bft) 95,16 %
13.12.2018 06:00 -1,1 C 3,9 C -1,3 C 93 % 1018,2 hPa 0,0 l/m 9,7 km/h (2 Bft) O-NO 0,00 h 0,000 mm 0,0 UV-I 0 W/m -2,1 C -4,4 C 14,8 km/h (3 Bft) 98,14 %
13.12.2018 07:00 -1,1 C 3,9 C -1,1 C 93 % 1018,1 hPa 0,0 l/m 10,1 km/h (2 Bft) O-NO 0,00 h 0,000 mm 0,0 UV-I 5 W/m -2,1 C -4,7 C 15,2 km/h (3 Bft) 97,28 %
13.12.2018 08:00 -1,1 C 3,9 C -1,1 C 93 % 1018,1 hPa 0,0 l/m 11,5 km/h (2 Bft) O-NO 0,00 h 0,000 mm 0,0 UV-I 11 W/m -2,1 C -5,8 C 16,5 km/h (3 Bft) 98,49 %
13.12.2018 09:00 -1,2 C 3,9 C -0,8 C 93 % 1017,9 hPa 0,2 l/m 14,1 km/h (3 Bft) O 0,00 h 0,000 mm 0,0 UV-I 38 W/m -2,1 C -7,7 C 20,1 km/h (4 Bft) 95,00 %
13.12.2018 10:00 -1,0 C 3,9 C -0,2 C 93 % 1017,7 hPa 0,0 l/m 14,0 km/h (3 Bft) O-NO 0,00 h 0,025 mm 0,0 UV-I 84 W/m -2,0 C -7,5 C 20,2 km/h (4 Bft) 97,69 %
13.12.2018 11:00 -0,9 C 3,9 C 0,0 C 92 % 1017,2 hPa 0,0 l/m 15,8 km/h (3 Bft) O-NO 0,00 h 0,026 mm 0,0 UV-I 130 W/m -2,0 C -8,5 C 22,1 km/h (4 Bft) 97,51 %
13.12.2018 12:00 -0,9 C 3,9 C 0,0 C 92 % 1016,7 hPa 0,0 l/m 17,2 km/h (3 Bft) O 0,50 h 0,051 mm 0,0 UV-I 171 W/m -2,1 C -9,3 C 24,2 km/h (4 Bft) 98,95 %
13.12.2018 13:00 -1,1 C 3,9 C -0,1 C 92 % 1016,5 hPa 0,0 l/m 21,5 km/h (4 Bft) O-NO 0,03 h 0,050 mm 0,0 UV-I 115 W/m -2,3 C -11,7 C 30,7 km/h (5 Bft) 95,91 %
13.12.2018 14:00 -1,2 C 3,9 C -0,8 C 92 % 1016,4 hPa 0,0 l/m 24,4 km/h (4 Bft) O-NO 0,00 h 0,051 mm 0,0 UV-I 68 W/m -2,4 C -13,1 C 34,0 km/h (5 Bft) 97,17 %
13.12.2018 15:00 -1,3 C 3,9 C -1,3 C 92 % 1016,5 hPa 0,0 l/m 24,3 km/h (4 Bft) O-NO 0,03 h 0,026 mm 0,0 UV-I 26 W/m -2,4 C -13,1 C 33,6 km/h (5 Bft) 97,32 %
13.12.2018 16:00 -1,4 C 3,9 C -1,7 C 92 % 1016,5 hPa 0,0 l/m 23,2 km/h (4 Bft) O-NO 0,00 h 0,025 mm 0,0 UV-I 6 W/m -2,6 C -12,9 C 32,8 km/h (5 Bft) 98,43 %
13.12.2018 17:00 -1,6 C 3,9 C -1,7 C 92 % 1016,6 hPa 0,0 l/m 23,0 km/h (4 Bft) O 0,00 h 0,025 mm 0,0 UV-I 0 W/m -2,7 C -12,9 C 32,3 km/h (5 Bft) 96,84 %
13.12.2018 18:00 -1,6 C 3,9 C -1,7 C 92 % 1016,8 hPa 0,0 l/m 23,9 km/h (4 Bft) O-NO 0,00 h 0,026 mm 0,0 UV-I 0 W/m -2,8 C -13,4 C 33,2 km/h (5 Bft) 96,82 %
13.12.2018 19:00 -1,7 C 3,9 C -1,7 C 92 % 1017,0 hPa 0,0 l/m 22,6 km/h (4 Bft) O-NO 0,00 h 0,025 mm 0,0 UV-I 0 W/m -2,8 C -12,9 C 31,2 km/h (5 Bft) 97,11 %
13.12.2018 20:00 -1,7 C 3,9 C -1,7 C 92 % 1017,3 hPa 0,0 l/m 21,2 km/h (4 Bft) O 0,00 h 0,026 mm 0,0 UV-I 0 W/m -2,8 C -12,3 C 30,8 km/h (5 Bft) 98,54 %
13.12.2018 21:00 -1,7 C 3,9 C -1,7 C 91 % 1017,4 hPa 0,0 l/m 23,7 km/h (4 Bft) O 0,00 h 0,000 mm 0,0 UV-I 0 W/m -2,9 C -13,4 C 33,2 km/h (5 Bft) 96,78 %
13.12.2018 22:00 -1,7 C 3,9 C -1,7 C 91 % 1017,4 hPa 0,0 l/m 23,8 km/h (4 Bft) O-NO 0,00 h 0,025 mm 0,0 UV-I 0 W/m -3,0 C -13,5 C 33,9 km/h (5 Bft) 96,53 %
13.12.2018 23:00 -1,8 C 3,9 C -1,7 C 91 % 1017,5 hPa 0,0 l/m 21,9 km/h (4 Bft) O-NO 0,00 h 0,025 mm 0,0 UV-I 0 W/m -3,1 C -12,8 C 32,0 km/h (5 Bft) 97,39 %
14.12.2018 00:00 -1,9 C 3,9 C -2,1 C 91 % 1017,3 hPa 0,0 l/m 22,5 km/h (4 Bft) O 0,00 h 0,000 mm 0,0 UV-I 0 W/m -3,2 C -13,2 C 32,0 km/h (5 Bft) 95,40 %
14.12.2018 01:00 -2,1 C 3,9 C -2,2 C 91 % 1017,3 hPa 0,0 l/m 22,4 km/h (4 Bft) O-NO 0,00 h 0,025 mm 0,0 UV-I 0 W/m -3,3 C -13,4 C 30,9 km/h (5 Bft) 97,03 %
14.12.2018 02:00 -2,2 C 3,9 C -2,2 C 91 % 1017,5 hPa 0,0 l/m 21,7 km/h (4 Bft) O 0,00 h 0,026 mm 0,0 UV-I 0 W/m -3,5 C -13,2 C 30,3 km/h (5 Bft) 96,51 %
14.12.2018 03:00 -2,2 C 3,9 C -2,2 C 91 % 1017,4 hPa 0,0 l/m 21,4 km/h (4 Bft) O-NO 0,00 h 0,025 mm 0,0 UV-I 0 W/m -3,5 C -13,1 C 29,6 km/h (5 Bft) 95,78 %
14.12.2018 04:00 -2,2 C 3,9 C -2,2 C 91 % 1017,3 hPa 0,0 l/m 21,1 km/h (4 Bft) O-NO 0,00 h 0,026 mm 0,0 UV-I 0 W/m -3,5 C -12,9 C 28,1 km/h (4 Bft) 98,69 %
14.12.2018 05:00 -2,1 C 3,9 C -2,2 C 90 % 1017,5 hPa 0,0 l/m 19,7 km/h (3 Bft) O-NO 0,00 h 0,025 mm 0,0 UV-I 0 W/m -3,5 C -12,1 C 26,8 km/h (4 Bft) 96,81 %
14.12.2018 06:00 -2,1 C 3,9 C -2,2 C 90 % 1017,9 hPa 0,0 l/m 19,1 km/h (3 Bft) O-NO 0,00 h 0,025 mm 0,0 UV-I 0 W/m -3,5 C -11,8 C 25,7 km/h (4 Bft) 97,18 %
14.12.2018 07:00 -2,2 C 3,9 C -2,2 C 91 % 1018,3 hPa 0,0 l/m 19,8 km/h (3 Bft) O-NO 0,00 h 0,026 mm 0,0 UV-I 5 W/m -3,5 C -12,3 C 26,6 km/h (4 Bft) 95,53 %
14.12.2018 08:00 -2,3 C 3,9 C -2,2 C 91 % 1018,9 hPa 0,0 l/m 18,3 km/h (3 Bft) O-NO 0,00 h 0,025 mm 0,0 UV-I 18 W/m -3,6 C -11,6 C 25,6 km/h (4 Bft) 97,38 %
14.12.2018 09:00 -2,2 C 3,9 C -1,7 C 91 % 1019,4 hPa 0,0 l/m 17,8 km/h (3 Bft) O-NO 0,00 h 0,026 mm 0,0 UV-I 59 W/m -3,5 C -11,2 C 24,7 km/h (4 Bft) 96,99 %
14.12.2018 10:00 -2,1 C 3,9 C -1,3 C 90 % 1020,0 hPa 0,0 l/m 15,7 km/h (3 Bft) O 0,00 h 0,025 mm 0,0 UV-I 64 W/m -3,4 C -9,9 C 22,3 km/h (4 Bft) 97,93 %
14.12.2018 11:00 -1,8 C 3,9 C -1,1 C 90 % 1019,9 hPa 0,0 l/m 15,2 km/h (3 Bft) O-NO 0,00 h 0,025 mm 0,0 UV-I 87 W/m -3,3 C -9,3 C 21,3 km/h (4 Bft) 94,85 %
14.12.2018 12:00 -1,8 C 3,9 C -1,1 C 90 % 1019,8 hPa 0,0 l/m 14,2 km/h (3 Bft) O-NO 0,00 h 0,026 mm 0,0 UV-I 78 W/m -3,2 C -8,6 C 19,6 km/h (3 Bft) 97,94 %
14.12.2018 13:00 -1,8 C 3,9 C -1,0 C 90 % 1019,7 hPa 0,0 l/m 12,7 km/h (3 Bft) O-NO 0,00 h 0,025 mm 0,0 UV-I 75 W/m -3,2 C -7,5 C 17,4 km/h (3 Bft) 97,72 %
14.12.2018 14:00 -1,5 C 3,9 C -0,8 C 89 % 1019,8 hPa 0,0 l/m 16,7 km/h (3 Bft) O 0,00 h 0,026 mm 0,0 UV-I 65 W/m -3,0 C -9,5 C 24,6 km/h (4 Bft) 97,77 %
14.12.2018 15:00 -1,6 C 3,9 C -1,5 C 89 % 1020,5 hPa 0,0 l/m 19,3 km/h (3 Bft) O 0,00 h 0,025 mm 0,0 UV-I 14 W/m -3,2 C -11,3 C 27,2 km/h (4 Bft) 95,36 %
14.12.2018 16:00 -1,6 C 3,9 C -1,7 C 89 % 1021,0 hPa 0,0 l/m 17,9 km/h (3 Bft) O 0,00 h 0,025 mm 0,0 UV-I 5 W/m -3,2 C -10,5 C 25,1 km/h (4 Bft) 98,08 %
14.12.2018 17:00 -1,7 C 3,9 C -1,7 C 89 % 1021,5 hPa 0,0 l/m 18,3 km/h (3 Bft) O 0,00 h 0,026 mm 0,0 UV-I 0 W/m -3,2 C -10,9 C 25,7 km/h (4 Bft) 97,06 %
14.12.2018 18:00 -1,7 C 3,9 C -1,7 C 89 % 1021,9 hPa 0,0 l/m 15,7 km/h (3 Bft) O-NO 0,00 h 0,025 mm 0,0 UV-I 0 W/m -3,3 C -9,4 C 22,2 km/h (4 Bft) 97,89 %
14.12.2018 19:00 -1,8 C 3,9 C -1,7 C 89 % 1022,3 hPa 0,0 l/m 13,6 km/h (3 Bft) O-NO 0,00 h 0,026 mm 0,0 UV-I 0 W/m -3,3 C -8,1 C 19,2 km/h (3 Bft) 95,05 %
14.12.2018 20:00 -1,8 C 3,9 C -1,7 C 88 % 1022,7 hPa 0,0 l/m 13,1 km/h (3 Bft) O 0,00 h 0,000 mm 0,0 UV-I 0 W/m -3,5 C -7,3 C 18,2 km/h (3 Bft) 96,09 %
14.12.2018 21:00 -1,9 C 3,9 C -2,0 C 88 % 1023,0 hPa 0,0 l/m 8,1 km/h (2 Bft) O-NO 0,00 h 0,000 mm 0,0 UV-I 0 W/m -3,7 C -3,8 C 12,1 km/h (2 Bft) 98,16 %
14.12.2018 22:00 -2,1 C 3,9 C -2,2 C 88 % 1023,3 hPa 0,0 l/m 8,7 km/h (2 Bft) NO 0,00 h 0,000 mm 0,0 UV-I 0 W/m -3,8 C -4,5 C 13,1 km/h (3 Bft) 97,36 %
14.12.2018 23:00 -2,1 C 3,9 C -2,2 C 89 % 1023,5 hPa 0,0 l/m 6,0 km/h (2 Bft) O-NO 0,00 h 0,000 mm 0,0 UV-I 0 W/m -3,6 C -2,3 C 8,7 km/h (2 Bft) 95,84 %
15.12.2018 00:00 -2,3 C 3,9 C -2,3 C 90 % 1023,4 hPa 0,0 l/m 3,7 km/h (1 Bft) NO 0,00 h 0,000 mm 0,0 UV-I 0 W/m -3,7 C -2,3 C 5,5 km/h (1 Bft) 96,24 %
15.12.2018 01:00 -2,6 C 3,9 C -2,8 C 89 % 1023,7 hPa 0,0 l/m 2,2 km/h (1 Bft) N-NO 0,00 h 0,000 mm 0,0 UV-I 0 W/m -4,2 C -2,6 C 3,5 km/h (1 Bft) 97,86 %
15.12.2018 02:00 -2,8 C 3,9 C -3,1 C 89 % 1024,2 hPa 0,0 l/m 1,1 km/h (1 Bft) N-NO 0,00 h 0,000 mm 0,0 UV-I 0 W/m -4,3 C -2,8 C 1,9 km/h (1 Bft) 97,51 %
15.12.2018 03:00 -2,8 C 3,9 C -2,8 C 89 % 1024,3 hPa 0,0 l/m 0,7 km/h (0 Bft) NO 0,00 h 0,000 mm 0,0 UV-I 0 W/m -4,3 C -2,8 C 1,3 km/h (1 Bft) 96,03 %
15.12.2018 04:00 -2,8 C 3,9 C -2,8 C 91 % 1024,5 hPa 0,0 l/m 1,8 km/h (1 Bft) W-NW 0,00 h 0,000 mm 0,0 UV-I 0 W/m -4,0 C -2,8 C 3,2 km/h (1 Bft) 96,31 %
15.12.2018 05:00 -2,8 C 3,9 C -2,8 C 93 % 1024,7 hPa 0,0 l/m 1,1 km/h (1 Bft) W-NW 0,00 h 0,000 mm 0,0 UV-I 0 W/m -3,9 C -2,8 C 2,2 km/h (1 Bft) 98,35 %
15.12.2018 06:00 -2,9 C 3,9 C -3,0 C 94 % 1024,9 hPa 0,0 l/m 2,0 km/h (1 Bft) W-NW 0,00 h 0,000 mm 0,0 UV-I 0 W/m -3,8 C -2,9 C 3,6 km/h (1 Bft) 95,37 %
15.12.2018 07:00 -3,2 C 3,9 C -3,3 C 95 % 1025,2 hPa 0,0 l/m 3,3 km/h (1 Bft) SW 0,00 h 0,000 mm 0,0 UV-I 6 W/m -4,0 C -3,2 C 5,1 km/h (1 Bft) 97,79 %
15.12.2018 08:00 -3,4 C 3,9 C -3,7 C 95 % 1025,7 hPa 0,0 l/m 3,1 km/h (1 Bft) SW 0,03 h 0,000 mm 0,0 UV-I 18 W/m -4,1 C -3,4 C 4,9 km/h (1 Bft) 97,94 %
15.12.2018 09:00 -2,9 C 3,9 C -1,8 C 95 % 1025,9 hPa 0,4 l/m 5,3 km/h (1 Bft) W-SW 0,00 h 0,000 mm 0,0 UV-I 62 W/m -3,6 C -3,0 C 8,2 km/h (2 Bft) 97,73 %
15.12.2018 10:00 -2,4 C 3,9 C -0,9 C 93 % 1025,8 hPa 0,0 l/m 7,4 km/h (2 Bft) W-SW 0,00 h 0,025 mm 0,0 UV-I 103 W/m -3,5 C -3,8 C 12,5 km/h (3 Bft) 97,02 %
15.12.2018 11:00 -2,0 C 3,9 C -0,5 C 90 % 1025,4 hPa 0,0 l/m 7,2 km/h (2 Bft) W-SW 0,90 h 0,026 mm 0,0 UV-I 249 W/m -3,4 C -3,0 C 12,4 km/h (3 Bft) 95,92 %
15.12.2018 12:00 -1,4 C 3,9 C 0,1 C 88 % 1024,9 hPa 0,0 l/m 8,3 km/h (2 Bft) SW 1,00 h 0,076 mm 0,0 UV-I 285 W/m -3,2 C -3,4 C 13,5 km/h (3 Bft) 97,65 %
15.12.2018 13:00 -0,9 C 3,9 C 0,8 C 84 % 1024,5 hPa 0,0 l/m 6,8 km/h (2 Bft) SW 1,00 h 0,102 mm 0,0 UV-I 239 W/m -3,1 C -1,5 C 10,8 km/h (2 Bft) 97,30 %
15.12.2018 14:00 -1,0 C 3,9 C -0,5 C 83 % 1024,6 hPa 0,0 l/m 6,0 km/h (2 Bft) SW 0,90 h 0,076 mm 0,0 UV-I 151 W/m -3,5 C -1,2 C 9,9 km/h (2 Bft) 98,42 %
15.12.2018 15:00 -1,9 C 3,9 C -2,2 C 85 % 1024,7 hPa 0,0 l/m 6,4 km/h (2 Bft) W-SW 0,87 h 0,051 mm 0,0 UV-I 50 W/m -4,0 C -2,3 C 10,5 km/h (2 Bft) 96,70 %
15.12.2018 16:00 -2,2 C 3,9 C -2,2 C 87 % 1024,7 hPa 0,0 l/m 5,0 km/h (1 Bft) SW 0,00 h 0,025 mm 0,0 UV-I 7 W/m -4,0 C -2,2 C 7,2 km/h (2 Bft) 98,70 %
15.12.2018 17:00 -2,5 C 3,9 C -2,8 C 89 % 1024,6 hPa 0,0 l/m 5,1 km/h (1 Bft) SW 0,00 h 0,000 mm 0,0 UV-I 0 W/m -4,1 C -2,5 C 7,4 km/h (2 Bft) 95,76 %
15.12.2018 18:00 -2,7 C 3,9 C -2,8 C 89 % 1024,5 hPa 0,0 l/m 5,6 km/h (1 Bft) SW 0,00 h 0,000 mm 0,0 UV-I 0 W/m -4,3 C -3,0 C 8,5 km/h (2 Bft) 97,05 %
15.12.2018 19:00 -2,9 C 3,9 C -3,3 C 89 % 1024,2 hPa 0,0 l/m 4,5 km/h (1 Bft) SW 0,00 h 0,000 mm 0,0 UV-I 0 W/m -4,5 C -2,9 C 6,7 km/h (2 Bft) 97,80 %
15.12.2018 20:00 -4,3 C 3,9 C -5,6 C 90 % 1023,8 hPa 0,0 l/m 4,6 km/h (1 Bft) S-SW 0,00 h 0,000 mm 0,0 UV-I 0 W/m -5,8 C -4,3 C 6,5 km/h (2 Bft) 96,47 %
15.12.2018 21:00 -5,4 C 3,9 C -7,0 C 90 % 1023,2 hPa 0,0 l/m 5,4 km/h (1 Bft) S-SW 0,00 h 0,000 mm 0,0 UV-I 0 W/m -6,8 C -5,5 C 7,3 km/h (2 Bft) 96,78 %
15.12.2018 22:00 -6,4 C 3,9 C -9,4 C 91 % 1022,4 hPa 0,0 l/m 2,6 km/h (1 Bft) S-SW 0,00 h 0,000 mm 0,0 UV-I 0 W/m -7,6 C -6,4 C 3,7 km/h (1 Bft) 97,94 %
15.12.2018 23:00 -7,2 C 3,9 C -9,9 C 93 % 1021,8 hPa 0,0 l/m 3,1 km/h (1 Bft) S-SW 0,00 h 0,000 mm 0,0 UV-I 0 W/m -8,2 C -7,2 C 4,4 km/h (1 Bft) 98,65 %
16.12.2018 00:00 -7,5 C 3,9 C -10,9 C 93 % 1021,3 hPa 0,0 l/m 1,9 km/h (1 Bft) S-SW 0,00 h 0,000 mm 0,0 UV-I 0 W/m -8,5 C -7,5 C 2,9 km/h (1 Bft) 96,73 %
16.12.2018 01:00 -8,1 C 3,9 C -11,3 C 93 % 1020,8 hPa 0,0 l/m 1,4 km/h (1 Bft) S 0,00 h 0,000 mm 0,0 UV-I 0 W/m -9,1 C -8,1 C 2,3 km/h (1 Bft) 98,97 %
16.12.2018 02:00 -8,7 C 3,9 C -12,0 C 93 % 1019,9 hPa 0,0 l/m 1,0 km/h (0 Bft) S 0,00 h 0,000 mm 0,0 UV-I 0 W/m -9,6 C -8,7 C 2,0 km/h (1 Bft) 97,10 %
16.12.2018 03:00 -9,0 C 3,9 C -11,8 C 93 % 1019,3 hPa 0,0 l/m 2,9 km/h (1 Bft) S 0,00 h 0,000 mm 0,0 UV-I 0 W/m -9,9 C -9,0 C 3,9 km/h (1 Bft) 95,72 %
16.12.2018 04:00 -9,1 C 3,9 C -11,9 C 93 % 1018,8 hPa 0,0 l/m 1,6 km/h (1 Bft) O-NO 0,00 h 0,000 mm 0,0 UV-I 0 W/m -10,0 C -9,1 C 2,7 km/h (1 Bft) 98,59 %
16.12.2018 05:00 -9,3 C 3,9 C -12,3 C 93 % 1018,3 hPa 0,0 l/m 2,6 km/h (1 Bft) O 0,00 h 0,000 mm 0,0 UV-I 0 W/m -10,2 C -9,8 C 4,0 km/h (1 Bft) 96,74 %
16.12.2018 06:00 -8,6 C 3,9 C -10,8 C 92 % 1017,8 hPa 0,0 l/m 3,3 km/h (1 Bft) O-SO 0,00 h 0,000 mm 0,0 UV-I 0 W/m -9,6 C -8,7 C 5,2 km/h (1 Bft) 97,36 %
16.12.2018 07:00 -8,8 C 3,9 C -11,0 C 92 % 1017,4 hPa 0,0 l/m 2,9 km/h (1 Bft) O 0,00 h 0,000 mm 0,0 UV-I 10 W/m -9,8 C -8,9 C 4,8 km/h (1 Bft) 98,36 %
16.12.2018 08:00 -8,6 C 3,9 C -9,5 C 93 % 1017,2 hPa 0,0 l/m 1,8 km/h (1 Bft) O 0,93 h 0,000 mm 0,0 UV-I 70 W/m -9,5 C -8,6 C 3,2 km/h (1 Bft) 94,62 %
16.12.2018 09:00 -7,5 C 3,9 C -6,6 C 92 % 1017,0 hPa 0,0 l/m 3,5 km/h (1 Bft) O 0,50 h 0,025 mm 0,0 UV-I 132 W/m -8,5 C -7,5 C 5,4 km/h (1 Bft) 96,51 %
16.12.2018 10:00 -5,6 C 3,9 C -2,6 C 90 % 1016,7 hPa 0,0 l/m 6,1 km/h (2 Bft) O-NO 1,00 h 0,026 mm 0,4 UV-I 267 W/m -6,9 C -6,3 C 9,2 km/h (2 Bft) 96,86 %
16.12.2018 11:00 -4,3 C 3,9 C -1,3 C 87 % 1016,6 hPa 0,0 l/m 5,8 km/h (2 Bft) O 0,07 h 0,076 mm 0,0 UV-I 154 W/m -6,2 C -4,9 C 9,3 km/h (2 Bft) 97,75 %
16.12.2018 12:00 -3,6 C 3,9 C -1,2 C 86 % 1016,4 hPa 0,0 l/m 7,9 km/h (2 Bft) O 0,00 h 0,051 mm 0,0 UV-I 122 W/m -5,6 C -5,7 C 13,0 km/h (3 Bft) 97,40 %
16.12.2018 13:00 -3,2 C 3,9 C -1,0 C 85 % 1016,4 hPa 0,0 l/m 5,4 km/h (1 Bft) SO 0,00 h 0,051 mm 0,0 UV-I 112 W/m -5,4 C -3,7 C 8,8 km/h (2 Bft) 98,04 %
16.12.2018 14:00 -3,3 C 3,9 C -1,6 C 84 % 1016,6 hPa 0,0 l/m 2,9 km/h (1 Bft) S 0,00 h 0,050 mm 0,0 UV-I 60 W/m -5,5 C -3,3 C 5,5 km/h (1 Bft) 96,42 %
16.12.2018 15:00 -3,5 C 3,9 C -2,4 C 86 % 1017,0 hPa 0,0 l/m 2,2 km/h (1 Bft) S 0,23 h 0,026 mm 0,0 UV-I 31 W/m -5,6 C -3,5 C 3,8 km/h (1 Bft) 97,20 %
16.12.2018 16:00 -3,6 C 3,9 C -2,8 C 87 % 1017,3 hPa 0,0 l/m 1,6 km/h (1 Bft) S 0,00 h 0,000 mm 0,0 UV-I 6 W/m -5,5 C -3,6 C 3,0 km/h (1 Bft) 97,12 %
16.12.2018 17:00 -3,5 C 3,9 C -2,8 C 85 % 1017,5 hPa 0,0 l/m 1,6 km/h (1 Bft) S 0,00 h 0,000 mm 0,0 UV-I 0 W/m -5,6 C -3,5 C 3,2 km/h (1 Bft) 98,07 %
16.12.2018 18:00 -3,3 C 3,9 C -2,8 C 87 % 1018,0 hPa 0,0 l/m 2,7 km/h (1 Bft) SW 0,00 h 0,000 mm 0,0 UV-I 0 W/m -5,1 C -3,3 C 4,4 km/h (1 Bft) 94,58 %
16.12.2018 19:00 -3,1 C 3,9 C -2,7 C 89 % 1018,4 hPa 0,0 l/m 2,2 km/h (1 Bft) SW 0,00 h 0,000 mm 0,0 UV-I 0 W/m -4,7 C -3,1 C 4,1 km/h (1 Bft) 98,94 %
16.12.2018 20:00 -2,8 C 3,9 C -2,2 C 89 % 1018,4 hPa 0,0 l/m 1,8 km/h (1 Bft) SW 0,00 h 0,000 mm 0,0 UV-I 0 W/m -4,4 C -2,8 C 3,1 km/h (1 Bft) 97,19 %
16.12.2018 21:00 -2,8 C 3,9 C -2,2 C 89 % 1018,8 hPa 0,0 l/m 5,0 km/h (1 Bft) O 0,00 h 0,000 mm 0,0 UV-I 0 W/m -4,3 C -2,8 C 7,4 km/h (2 Bft) 98,07 %
16.12.2018 22:00 -2,6 C 3,9 C -2,2 C 89 % 1019,1 hPa 0,0 l/m 4,3 km/h (1 Bft) NO 0,00 h 0,000 mm 0,0 UV-I 0 W/m -4,2 C -2,7 C 6,3 km/h (2 Bft) 94,92 %
16.12.2018 23:00 -2,9 C 3,9 C -3,7 C 90 % 1019,1 hPa 0,0 l/m 2,5 km/h (1 Bft) SO 0,00 h 0,000 mm 0,0 UV-I 0 W/m -4,4 C -2,9 C 4,2 km/h (1 Bft) 98,01 %
Min-Datum _ 16.12.18 11.12.18 16.12.18 10.12.18 10.12.18 - 12.12.18 - - - - - 16.12.18 13.12.18 12.12.18 14.12.18
_ Min-Zeit 05:16 09:16 05:14 13:32 00:02 - 19:12 - - - - - 07:36 18:02 19:12 00:02
Minimum _ -9,8 C 3,9 C -13,3 C 76 % 1008,9 hPa - 0,0 km/h (0 Bft) - - - - - -10,8 C -16,3 C 0,0 km/h (0 Bft) 4,76 %
Max-Datum _ 10.12.18 10.12.18 10.12.18 12.12.18 15.12.18 12.12.18 10.12.18 - 12.12.18 15.12.18 16.12.18 16.12.18 10.12.18 10.12.18 10.12.18 10.12.18
_ Max-Zeit 01:00 00:00 13:12 19:50 09:46 20:02 21:34 - 15:49 13:00 10:50 10:52 00:30 07:24 21:34 00:18
Maximum _ 5,8 C 4,4 C 6,1 C 97 % 1026,0 hPa 2,6 l/m 34,2 km/h
W (5 Bft)
- 0,05 h 0,102 mm 0,5 UV-I 364 W/m 4,0 C 2,5 C 61,2 km/h
W (7 Bft)
100,00 %
Durchschnitt _ -0,9 C 4,0 C -1,1 C 91 % 1019,2 hPa #15,4 l/m 12,5 km/h (3 Bft) W-SW #10:04 h #2,973 mm 0,4 UV-I 71 W/m -2,2 C -6,0 C 18,5 km/h (3 Bft) 97,10 %